Weather History for Hays, KS

Change the Weather History Date:

Friday, May 31, 2013

  Actual Average Record
Temperature  
Mean Temperature 66 °F -  
Max Temperature 82 °F 77 °F 100 °F (2002)
Min Temperature 51 °F 53 °F 44 °F (2004)
Cooling Degree Days 2    
Growing Degree Days 16 (Base 50)    
Moisture  
Dew Point 47 °F    
Average Humidity 53    
Maximum Humidity 94    
Minimum Humidity 21    
Precipitation  
Precipitation 0.00 in - - ()
Sea Level Pressure  
Sea Level Pressure 29.74 in    
Wind  
Wind Speed 9 mph (NW)    
Max Wind Speed 32 mph    
Max Gust Speed 40 mph    
Visibility 10 miles    
Events      
Averages and records for this station are not official NWS values.
T = Trace of Precipitation, MM = Missing Value Source: NWS Daily Summary

Daily Weather History Graph

Daily Weather History Graph

Search for Another Location

Airport:

Trip Planner

Search our weather history database for the weather conditions in past years. The results will help you decide how hot, cold, wet, or windy it might be!

Date:

Astronomy

May. 31, 2013 Rise Set
Actual Time 6:14 AM CDT 8:55 PM CDT
Civil Twilight 5:42 AM CDT 9:27 PM CDT
Nautical Twilight 5:03 AM CDT 10:06 PM CDT
Astronomical Twilight 4:19 AM CDT 10:50 PM CDT
Moon 1:34 AM CDT (5/31) 1:27 PM CDT (5/31)
Length of Visible Light 15h 44m
Length of Day
14h 41m
Waning Gibbous, 51% of the Moon is Illuminated
May 31
Waning Gibbous
May 31
Last Quarter
Jun 8
New
Jun 16
First Quarter
Jun 23
Full

Hourly Weather History & Observations

Time (CDT) Temp. Dew Point Humidity Pressure Visibility Wind Dir Wind Speed Gust Speed Precip Events Conditions
12:15 AM 62.6 °F 53.6 °F 72% 29.69 in 10.0 mi SE 8.1 mph - N/A   Clear
12:35 AM 62.6 °F 53.6 °F 72% 29.70 in 10.0 mi SE 4.6 mph - N/A   Clear
12:55 AM 62.6 °F 53.6 °F 72% 29.71 in 10.0 mi NE 5.8 mph - N/A   Clear
1:15 AM 62.6 °F 53.6 °F 72% 29.71 in 10.0 mi North 5.8 mph - N/A   Clear
1:35 AM 60.8 °F 53.6 °F 77% 29.70 in 10.0 mi North 9.2 mph - N/A   Clear
1:55 AM 59.0 °F 53.6 °F 82% 29.70 in 10.0 mi North 6.9 mph - N/A   Clear
2:15 AM 59.0 °F 53.6 °F 82% 29.70 in 10.0 mi North 5.8 mph - N/A   Clear
2:35 AM 57.2 °F 53.6 °F 88% 29.70 in 10.0 mi Calm Calm - N/A   Clear
2:55 AM 55.4 °F 51.8 °F 88% 29.69 in 10.0 mi South 3.5 mph - N/A   Clear
3:15 AM 55.4 °F 51.8 °F 88% 29.69 in 10.0 mi WNW 4.6 mph - N/A   Clear
3:35 AM 55.4 °F 51.8 °F 88% 29.69 in 10.0 mi WNW 4.6 mph - N/A   Clear
3:55 AM 55.4 °F 51.8 °F 88% 29.68 in 10.0 mi NW 5.8 mph - N/A   Clear
4:15 AM 55.4 °F 51.8 °F 88% 29.68 in 10.0 mi WNW 4.6 mph - N/A   Clear
4:35 AM 53.6 °F 51.8 °F 94% 29.69 in 10.0 mi NW 8.1 mph - N/A   Clear
4:55 AM 53.6 °F 50.0 °F 88% 29.69 in 10.0 mi NW 5.8 mph - N/A   Clear
5:15 AM 53.6 °F 51.8 °F 94% 29.69 in 10.0 mi NNW 3.5 mph - N/A   Clear
5:35 AM 53.6 °F 48.2 °F 82% 29.70 in 10.0 mi WNW 8.1 mph - N/A   Clear
5:55 AM 51.8 °F 48.2 °F 88% 29.71 in 10.0 mi NW 10.4 mph - N/A   Clear
6:15 AM 53.6 °F 51.8 °F 94% 29.72 in 10.0 mi NW 10.4 mph - N/A   Clear
6:35 AM 55.4 °F 51.8 °F 88% 29.72 in 10.0 mi NW 10.4 mph - N/A   Clear
6:55 AM 55.4 °F 51.8 °F 88% 29.73 in 10.0 mi NW 10.4 mph - N/A   Clear
7:15 AM 55.4 °F 51.8 °F 88% 29.73 in 10.0 mi NW 10.4 mph - N/A   Clear
7:35 AM 57.2 °F 51.8 °F 82% 29.74 in 8.0 mi NW 11.5 mph - N/A   Clear
7:55 AM 59.0 °F 51.8 °F 77% 29.74 in 10.0 mi NW 8.1 mph - N/A   Clear
8:15 AM 60.8 °F 51.8 °F 72% 29.74 in 10.0 mi NW 10.4 mph - N/A   Clear
8:35 AM 62.6 °F 51.8 °F 68% 29.75 in 10.0 mi NW 6.9 mph - N/A   Clear
8:55 AM 64.4 °F 48.2 °F 56% 29.76 in 10.0 mi NNW 4.6 mph - N/A   Clear
9:15 AM 64.4 °F 48.2 °F 56% 29.77 in 10.0 mi WNW 3.5 mph - N/A   Clear
9:35 AM 66.2 °F 50.0 °F 56% 29.76 in 10.0 mi NNW 5.8 mph - N/A   Clear
9:55 AM 68.0 °F 51.8 °F 56% 29.76 in 10.0 mi WNW 9.2 mph - N/A   Clear
10:15 AM 69.8 °F 51.8 °F 53% 29.77 in 10.0 mi WNW 5.8 mph - N/A   Clear
10:35 AM 69.8 °F 50.0 °F 49% 29.77 in 10.0 mi Calm Calm - N/A   Clear
10:55 AM 71.6 °F 50.0 °F 46% 29.77 in 10.0 mi NNW 5.8 mph - N/A   Clear
11:15 AM 73.4 °F 51.8 °F 47% 29.78 in 10.0 mi WNW 5.8 mph - N/A   Clear
11:35 AM 75.2 °F 51.8 °F 44% 29.78 in 10.0 mi NW 6.9 mph - N/A   Clear
11:55 AM 75.2 °F 48.2 °F 38% 29.78 in 10.0 mi NW 9.2 mph - N/A   Clear
12:15 PM 75.2 °F 44.6 °F 34% 29.78 in 10.0 mi NW 9.2 mph - N/A   Clear
12:35 PM 78.8 °F 44.6 °F 30% 29.78 in 10.0 mi WNW 15.0 mph 18.4 mph N/A   Clear
12:55 PM 77.0 °F 42.8 °F 29% 29.79 in 10.0 mi WNW 9.2 mph - N/A   Clear
1:15 PM 77.0 °F 41.0 °F 28% 29.79 in 10.0 mi NW 6.9 mph - N/A   Clear
1:35 PM 77.0 °F 39.2 °F 26% 29.78 in 10.0 mi WNW 9.2 mph - N/A   Clear
1:55 PM 78.8 °F 42.8 °F 28% 29.78 in 10.0 mi WNW 13.8 mph 19.6 mph N/A   Clear
2:15 PM 80.6 °F 42.8 °F 26% 29.77 in 10.0 mi West 11.5 mph 19.6 mph N/A   Clear
2:35 PM 80.6 °F 42.8 °F 26% 29.77 in 10.0 mi West 17.3 mph 24.2 mph N/A   Clear
2:55 PM 80.6 °F 41.0 °F 24% 29.76 in 10.0 mi West 15.0 mph 21.9 mph N/A   Clear
3:15 PM 80.6 °F 42.8 °F 26% 29.77 in 10.0 mi WNW 19.6 mph 23.0 mph N/A   Clear
3:35 PM 80.6 °F 41.0 °F 24% 29.75 in 10.0 mi West 20.7 mph 24.2 mph N/A   Clear
3:55 PM 80.6 °F 39.2 °F 23% 29.75 in 10.0 mi WNW 15.0 mph 26.5 mph N/A   Clear
4:15 PM 80.6 °F 42.8 °F 26% 29.75 in 10.0 mi West 24.2 mph 31.1 mph N/A   Clear
4:35 PM 82.4 °F 39.2 °F 21% 29.74 in 10.0 mi West 32.2 mph 40.3 mph N/A   Clear
4:55 PM 80.6 °F 39.2 °F 23% 29.74 in 10.0 mi West 26.5 mph 29.9 mph N/A   Clear
5:15 PM 80.6 °F 37.4 °F 21% 29.74 in 10.0 mi West 25.3 mph 31.1 mph N/A   Clear
5:35 PM 80.6 °F 37.4 °F 21% 29.74 in 10.0 mi West 17.3 mph 32.2 mph N/A   Clear
5:55 PM 78.8 °F 39.2 °F 24% 29.74 in 10.0 mi West 20.7 mph 25.3 mph N/A   Scattered Clouds
6:15 PM 80.6 °F 37.4 °F 21% 29.73 in 10.0 mi West 17.3 mph 27.6 mph N/A   Partly Cloudy
6:35 PM 80.6 °F 39.2 °F 23% 29.71 in 10.0 mi West 17.3 mph 25.3 mph N/A   Clear
6:55 PM 80.6 °F 39.2 °F 23% 29.70 in 10.0 mi West 16.1 mph 19.6 mph N/A   Clear
7:15 PM 78.8 °F 41.0 °F 26% 29.71 in 10.0 mi West 11.5 mph - N/A   Clear
7:35 PM 78.8 °F 41.0 °F 26% 29.71 in 10.0 mi West 10.4 mph - N/A   Clear
7:55 PM 75.2 °F 41.0 °F 29% 29.73 in 10.0 mi West 9.2 mph - N/A   Clear
8:15 PM 73.4 °F 44.6 °F 36% 29.74 in 10.0 mi West 6.9 mph - N/A   Clear
8:35 PM 69.8 °F 46.4 °F 43% 29.75 in 10.0 mi NNW 8.1 mph - N/A   Clear
8:55 PM 71.6 °F 41.0 °F 33% 29.76 in 10.0 mi NNW 5.8 mph - N/A   Clear
9:15 PM 69.8 °F 42.8 °F 38% 29.77 in 10.0 mi NNW 4.6 mph - N/A   Clear
9:35 PM 69.8 °F 41.0 °F 35% 29.78 in 10.0 mi NW 4.6 mph - N/A   Clear
9:55 PM 66.2 °F 44.6 °F 46% 29.78 in 10.0 mi North 5.8 mph - N/A   Clear
10:15 PM 64.4 °F 44.6 °F 49% 29.79 in 10.0 mi NNW 10.4 mph - N/A   Clear
10:35 PM 64.4 °F 44.6 °F 49% 29.80 in 10.0 mi NNW 10.4 mph - N/A   Clear
10:55 PM 64.4 °F 42.8 °F 45% 29.81 in 10.0 mi North 13.8 mph - N/A   Clear
11:15 PM 64.4 °F 42.8 °F 45% 29.82 in 10.0 mi NNW 20.7 mph 24.2 mph N/A   Clear
11:35 PM 64.4 °F 42.8 °F 45% 29.83 in 10.0 mi North 21.9 mph 32.2 mph N/A   Clear
11:55 PM 62.6 °F 42.8 °F 48% 29.85 in 10.0 mi North 16.1 mph 24.2 mph N/A   Clear